Location: Newark
(45.4422°N, 16.2769°E)
Time: 00:26:25
(UTC+00:00)

Courier 1B - Pass Details

Date: 19 December 2019
Orbit: 962 x 1209 km, 28.3° (Epoch: 21 January)

Event Time Altitude Azimuth Distance (km) Brightness Sun altitude
Rises 15:44:43 0° 205° (SSW) 3,651 11.5 -5.6°
Maximum altitude 15:51:16 10° 158° (SSE) 2,764 10.0 -6.6°
Drops below altitude 10° 15:51:21 10° 158° (SSE) 2,765 10.0 -6.6°
Sets 15:58:02 0° 112° (ESE) 3,801 10.2 -7.6°
